全部
Kempsey Airport (Kempsey, New South Wales) KPS 天氣
|
Kempsey, New South Wales (KPS / YKMP)
晴天
微風 |
|
26 °C |
There is no TAF data available at KPS. Showing TAF data for YPMQ (26 mi S).
PQQ終端機場天氣預報(KPS無資料)
| Here is the undecoded forecast: 2026/05/03 23:07 YPMQ 032307Z 0400/0412 03012KT 9999 -SHRA SCT030 FM040900 36007KT 9999 NSW SCT020 INTER 0400/0402 5000 SHRA SCT015 RMK T 22 24 23 20 Q 1019 1016 1016 1017 |
KPS近期METAR歷史資料
| Date | Time (AEST) | Flight Rules | Wind Dir. | Speed | Type | Height AGL (ft) | Visibility | Temp (°C) | Temp (°F) | Dew Point (°C) | Dew Point (°F) | Rel. Humid. | Pressure | Density Altitude | Remarks |
|---|---|---|---|---|---|---|---|---|---|---|---|---|---|---|---|
| 04-五月 | 14:00 | n/a | 30° | 9 kt | Missing | 26° | 78° | 18° | 64° | 61% | 1016 mb | 1,292 ft | |||
| 04-五月 | 13:00 | n/a | 20° | 8 kt | Missing | 25° | 77° | 17° | 62° | 61% | 1016 mb | 1,172 ft | |||
| 04-五月 | 12:00 | n/a | 10° | 8 kt | Missing | 26° | 78° | 17° | 62° | 58% | 1017 mb | 1,262 ft | |||
| 04-五月 | 11:00 | n/a | 340° | 5 kt | Missing | 24° | 75° | 18° | 64° | 69% | 1018 mb | 992 ft | |||
| 04-五月 | 10:00 | n/a | 300° | 5 kt | Missing | 21° | 69° | 19° | 66° | 88% | 1019 mb | 603 ft | |||
| 04-五月 | 09:00 | n/a | 310° | 5 kt | Missing | 19° | 66° | 17° | 62° | 88% | 1020 mb | 333 ft | |||
| 04-五月 | 08:00 | n/a | 310° | 4 kt | Missing | 18° | 64° | 17° | 62° | 94% | 1019 mb | 243 ft | |||
| 04-五月 | 07:00 | n/a | Calm | Missing | 17° | 62° | 17° | 62° | 100% | 1019 mb | 123 ft | ||||
| 04-五月 | 06:00 | n/a | Calm | Missing | 17° | 62° | 17° | 62° | 100% | 1018 mb | 152 ft | ||||
| 04-五月 | 05:00 | n/a | 10° | 3 kt | Missing | 17° | 62° | 16° | 60° | 94% | 1018 mb | 152 ft | |||
| 04-五月 | 04:00 | n/a | Calm | Missing | 16° | 60° | 16° | 60° | 100% | 1018 mb | 32 ft | ||||
| 04-五月 | 03:00 | n/a | 310° | 6 kt | Missing | 17° | 62° | 17° | 62° | 100% | 1018 mb | 152 ft | |||
| 04-五月 | 02:00 | n/a | 300° | 5 kt | Missing | 17° | 62° | 17° | 62° | 100% | 1019 mb | 123 ft | |||
| 04-五月 | 01:00 | n/a | Calm | Missing | 17° | 62° | 17° | 62° | 100% | 1019 mb | 123 ft | ||||
| 04-五月 | 00:00 | n/a | Calm | Missing | 17° | 62° | 17° | 62° | 100% | 1020 mb | 93 ft | ||||
| 03-五月 | 23:00 | n/a | 280° | 5 kt | Missing | 18° | 64° | 17° | 62° | 94% | 1020 mb | 213 ft | |||
| 03-五月 | 22:00 | n/a | Calm | Missing | 17° | 62° | 17° | 62° | 100% | 1020 mb | 93 ft | ||||
| 03-五月 | 21:00 | n/a | 100° | 1 kt | Missing | 17° | 62° | 17° | 62° | 100% | 1020 mb | 93 ft | |||
| 03-五月 | 20:00 | n/a | Calm | Missing | 18° | 64° | 18° | 64° | 100% | 1020 mb | 213 ft | ||||
| 03-五月 | 19:00 | n/a | 160° | 3 kt | Missing | 19° | 66° | 18° | 64° | 94% | 1021 mb | 304 ft | |||
| 03-五月 | 18:00 | n/a | Calm | Missing | 19° | 66° | 18° | 64° | 94% | 1020 mb | 333 ft | ||||
| 03-五月 | 17:00 | n/a | 330° | 5 kt | Missing | 20° | 68° | 18° | 64° | 88% | 1020 mb | 453 ft | |||
| 03-五月 | 16:00 | n/a | 250° | 3 kt | Missing | 22° | 71° | 18° | 64° | 78% | 1020 mb | 693 ft | |||
| 03-五月 | 15:00 | n/a | 290° | 6 kt | Missing | 21° | 69° | 18° | 64° | 83% | 1020 mb | 573 ft |
登入
| 您的瀏覽器不支援. 升級您的瀏覽器 |
